AA6MV Weather Reports


time (UTC)temp
F
wind
direction
speed
knots
gust
knots
rain 1hr
in
rain 24hr
in
rain mn
in
humidity
%
barometer
mb
20260505041522 62 117 0.0 2.6 0.00 0.00 0.00 36 1005.9
20260505040021 62 120 0.0 1.7 0.00 0.00 0.00 36 1005.5
20260505034515 62 110 0.0 1.7 0.00 0.00 0.00 35 1005.8
20260505031548 63 103 0.0 1.7 0.00 0.00 0.00 32 1005.2
20260505030033 64 108 0.0 0.9 0.00 0.00 0.00 31 1004.9
20260505024535 65 111 0.0 5.2 0.00 0.00 0.00 30 1004.7
20260505021642 69 37 0.0 0.0 0.00 0.00 0.00 29 1004.0
20260505020034 69 40 0.0 0.0 0.00 0.00 0.00 28 1003.8
20260505014528 70 32 0.0 7.0 0.00 0.00 0.00 28 1004.0
20260505013019 71 32 3.5 8.7 0.00 0.00 0.00 27 1004.1
20260505011530 72 44 3.5 8.7 0.00 0.00 0.00 27 1003.9
20260505004537 71 1 2.6 10.4 0.00 0.00 0.00 24 1004.1
20260505003016 71 37 4.3 11.3 0.00 0.00 0.00 23 1004.4
20260505001517 72 67 5.2 13.0 0.00 0.00 0.00 23 1004.2
20260504234521 72 30 7.0 12.2 0.00 0.00 0.00 20 1004.4
20260504233030 73 43 3.5 9.6 0.00 0.00 0.00 22 1004.3
20260504231518 73 36 5.2 10.4 0.00 0.00 0.00 22 1004.3
20260504224545 73 19 5.2 15.6 0.00 0.00 0.00 20 1004.1
20260504223043 73 42 7.0 13.9 0.00 0.00 0.00 19 1004.2
20260504221558 73 25 6.1 12.2 0.00 0.00 0.00 20 1004.0
20260504220047 73 23 7.0 13.0 0.00 0.00 0.00 19 1004.5
20260504214655 74 32 7.0 16.5 0.00 0.00 0.00 20 1004.6
20260504213147 74 13 7.8 17.4 0.00 0.00 0.00 20 1004.6
20260504211507 74 39 8.7 13.9 0.00 0.00 0.00 21 1004.6
20260504210007 74 358 1.7 10.4 0.00 0.00 0.00 23 1004.9
20260504204504 73 352 1.7 8.7 0.00 0.00 0.00 23 1005.3
20260504203005 73 1 1.7 9.6 0.00 0.00 0.00 22 1005.4
20260504201601 73 17 3.5 10.4 0.00 0.00 0.00 21 1005.4
20260504200058 73 59 2.6 11.3 0.00 0.00 0.00 22 1005.8
20260504194615 72 15 4.3 14.8 0.00 0.00 0.00 21 1005.8
20260504191608 73 46 3.5 13.0 0.00 0.00 0.00 19 1005.9
20260504190117 74 39 5.2 12.2 0.00 0.00 0.00 21 1005.9
20260504184554 73 341 1.7 12.2 0.00 0.00 0.00 28 1006.1
20260504183050 73 345 3.5 7.8 0.00 0.00 0.00 29 1006.2
20260504181602 71 330 5.2 8.7 0.00 0.00 0.00 30 1006.2
20260504181510 71 316 5.2 8.7 0.00 0.00 0.00 30 1006.2
20260504180111 70 30 0.0 4.3 0.00 0.00 0.00 32 1006.4
20260504174555 71 34 0.0 5.2 0.00 0.00 0.00 33 1006.6
20260504173151 70 347 0.0 5.2 0.00 0.00 0.00 36 1006.4
20260504171522 68 67 0.0 7.0 0.00 0.00 0.00 38 1006.4
20260504081558 62 296 1.7 6.1 0.00 0.00 0.00 45 1004.8